Location: Bay Harbour
(38.2612°N, 75.2555°W)
Time: 02:27:38
(UTC+00:00)

Cosmos 968 Rocket - Pass Details

Date: 29 October 2020
Orbit: 741 x 770 km, 74.0° (Epoch: 02 December)

Event Time Altitude Azimuth Distance (km) Brightness Sun altitude
Rises 23:18:51 0° 342° (NNW) 3,229 6.9 -15.2°
Reaches altitude 10° 23:21:14 10° 343° (NNW) 2,296 6.1 -15.6°
Maximum altitude 23:26:27 84° 72° (ENE) 763 3.4 -16.6°
Drops below altitude 10° 23:31:35 10° 161° (SSE) 2,261 5.8 -17.6°
Sets 23:33:55 0° 162° (SSE) 3,177 6.6 -18.1°
